Regional Weather Roundup
Issued by NWS Sterling, VA

Home | Current Version | Previous Version | Graphics & Text | Print | Product List | Glossary On
Versions: 1 2 3 4 5 6 7 8 9 10 11 12 13 14 15 16 17 18 19 20 21 22 23 24 25 26 27
000
ASUS41 KLWX 310210
RWRLWX

REGIONAL WEATHER ROUNDUP
NATIONAL WEATHER SERVICE BALTIMORE MD/WASHINGTON DC
1000 PM EDT MON MAY 30 2016

Note: "FAIR" indicates few or no clouds below 12,000 feet
with no significant weather and/or obstructions to visibility.
 TC=TEMPERATURE CELSIUS

 * =Non NWS site. Station does not report precipitation (e.g. rain,
    snow, etc.), thunder, or fog.

DCZ001-MDZ009-015-VAZ040>042-051-053>054-310300-
WASHINGTON METRO

CITY           SKY/WX    TMP DP  RH WIND       PRES   REMARKS
WASHINGTON NAT CLOUDY    74  70  87 S12       29.99R
DULLES         MOCLDY    73  69  87 S3        29.98R
ANDREWS AFB    CLOUDY    71  69  93 S6        30.00R
FT BELVOIR     CLOUDY    72  69  91 SE5       29.99R
QUANTICO       MOCLDY    72  69  90 S10       30.00R
COLLEGE PARK*  MOCLDY    72  68  88 SE5       29.99R
LEESBURG*      FAIR      77  72  83 SE10G16   29.99R
MANASSAS*      PTCLDY    72  72 100 S3        29.98R

$$

MDZ006>007-011-014-310300-
BALTIMORE METRO

CITY           SKY/WX    TMP DP  RH WIND       PRES   REMARKS
BWI AIRPORT    CLOUDY    71  69  93 S3        29.99R
MD SCIENCE CTR   N/A     74  69  85 MISG      29.99R
MARTIN STATE   CLOUDY    72  72 100 SE9       30.01R
ANNAPOLIS      CLOUDY    70  68  93 S7        29.99R
FORT MEADE*    CLOUDY    70  68  94 CALM      30.02R

$$

MDZ012-015-019>023-310300-
MARYLAND EASTERN SHORE

CITY           SKY/WX    TMP DP  RH WIND       PRES   REMARKS
OCEAN CITY     LGT RAIN  67  66  97 CALM      30.01R
SALISBURY      LGT RAIN  67  66  97 S3        29.99S
BAY BRIDGE AP* CLOUDY    70  68  94 S7        30.00R
CAMBRIDGE*       N/A     66  64  94 CALM      29.99S
EASTON*        CLOUDY    70  70 100 CALM      30.04R

$$

MDZ017>025-310300-
SOUTHERN MARYLAND

CITY           SKY/WX    TMP DP  RH WIND       PRES   REMARKS
PATUXENT RIVER CLOUDY    68  66  93 CALM      30.00R
ST INIGOES     CLOUDY    69  67  93 SW3       29.99R
LEONARDTOWN*   CLOUDY    68  64  88 CALM      30.01S

$$

MDZ003>005-310300-
NORTH CENTRAL MARYLAND

CITY           SKY/WX    TMP DP  RH WIND       PRES   REMARKS
FREDERICK*     PTCLDY    72  70  94 SE5       30.00R
HAGERSTOWN APT CLOUDY    74  64  71 CALM      29.98R
WESTMINSTER*   CLOUDY    73  70  88 E7        30.01R

$$

MDZ501>502-310300-
WESTERN MARYLAND

CITY           SKY/WX    TMP DP  RH WIND       PRES   REMARKS
OAKLAND*       PTCLDY    64  57  77 CALM      30.09S
CUMBERLAND*    PTCLDY    68  68 100 CALM      30.04R

$$

VAZ025>031-310300-
SHENANDOAH VALLEY

CITY           SKY/WX    TMP DP  RH WIND       PRES   REMARKS
WINCHESTER*    FAIR      68  63  83 S3        29.98S
FRONT ROYAL*   FAIR      68  66  94 S6        29.98S
LURAY*         RAIN      68  68 100 SW8       30.02R
NEW MARKET*    CLOUDY    67  66  97 SE5       30.02R
STAUNTON*      MOCLDY    69  64  83 N5        30.04R
WAYNESBORO*    MOCLDY    72  65  80 CALM      30.01R

$$

WVZ021-048>050-054>055-310300-
EASTERN WEST VIRGINIA PANHANDLE

CITY           SKY/WX    TMP DP  RH WIND       PRES   REMARKS
MARTINSBURG    FAIR      70  63  78 E3        29.97R
PETERSBURG*    FAIR      68  65  91 CALM      30.03R

$$

VAZ036>039-050-310300-
CENTRAL FOOTHILLS

CITY           SKY/WX    TMP DP  RH WIND       PRES   REMARKS
CHARLOTTESVILL FAIR      74  69  85 SE6       29.99R
CULPEPER*      MOCLDY    72  70  96 CALM      29.99R
ORANGE*        FAIR      72  72 100 CALM      30.01R
GORDONSVILLE*  MOCLDY    71  70  98 CALM      29.99R
WARRENTON*     FAIR      73  66  79 SE5       29.98S

$$

VAZ055>057-310300-
NORTH AND CENTRAL PIEDMONT

CITY           SKY/WX    TMP DP  RH WIND       PRES   REMARKS
FREDERICKSBRG* FAIR      70  70 100 SE3       29.99R
STAFFORD*        N/A     69  65  86 CALM      30.03R

$$

NCZ024-NYZ072-PAZ021-071-VAZ022-071-310300-
OTHER REGIONAL OBSERVATIONS

CITY           SKY/WX    TMP DP  RH WIND       PRES   REMARKS
NEW YORK CITY  CLOUDY    74  67  78 VRB6      29.98R
PHILADELPHIA   CLOUDY    72  68  87 S9        29.98S
PITTSBURGH     PTCLDY    73  55  53 CALM      30.01R
ROANOKE        CLOUDY    72  64  76 N6        30.02R
RICHMOND       CLOUDY    68  68 100 CALM      29.99R
RALEIGH        LGT RAIN  71  70  96 CALM      29.97R

$$

ANZ530>537-310300-
MARINE OBSERVATIONS

STATION/POSITION TIME  TEMP    WIND        PRES
                       AIR SEA DIR/SP/G
                 (UTC) (F)     (DEG/KT/KT) (MB)
THOMAS PT LIGHT  0200   69 69  180/ 12/ 13 1017.0R
BALT KEY BRIDGE  0100                      1014.6
COVE POINT       0100                      1015.8
LEWISETTA        0100      72              1014.8
SOLOMONS ISLAND  0100      68                N/A
PINEY POINT      0100          160/ 10/ 11   N/A

$$





USA.gov is the U.S. government's official web portal to all federal, state and local government web resources and services.